HOOPOE (42718 NORAD) Tracking and Keplerian Element Data

This shows tracking and keplerian element data for the satellite.

Feedback or suggestion? Click here.




ElementValue
Catalog42718
NameHOOPOE
Epoch Orbit9080
Epoch Day356.15972234
Epoch Year2018
RAAN91.1207
Inclination51.6191
Eccentricity0.0006689
Argument of Perigee20.3338
Mean Anonmoly341.4464
Mean Motion16.42542197
Decay Rate0.08813836
L11 42718U 98067LZ 18356.15972234 .08813836 12573-4 44196-3 0 9994
L22 42718 51.6191 91.1207 0006689 20.3338 341.4464 16.42542197 90809



Live tracking and technical data element details for HOOPOE (NORAD 42718). HOOPOE can be tracked NOW for your location showing map with azimuth and elevation plus other details from your city location.







IsCatalogInMostPopularTable: catalog: 42718, numindb: 590
Update: records affected: 1



GetName: 42718 HOOPOE

Hit Count: updated at: Thu, 23 Jan 2025 17:40:37 GMT